This demonstration page uses our WeatherBlox Daily Observations layout. Learn more.

Left ArrowRight Arrow

36.17497, -115.13722

Hourly Observations for January 27, 2017

Temp ( °F °C ) Dew Point ( °F °C ) Humidity (%) Winds ( mph kmh ) Pressure ( in mb ) Visibility ( mi km ) Precip ( " mm )
12:53 am 00:53 Clear 39 3.9 18 -7.8 43 43 NNW 8 13 30.53 1034 10 16.0934 0 0
1:53 am 01:53 Clear 39 3.9 18 -7.8 43 43 N 10 17 30.54 1034 10 16.0934 0 0
2:53 am 02:53 Clear 39 3.9 18 -7.8 43 43 NNW 14 22 30.55 1034 10 16.0934 0 0
3:53 am 03:53 Clear 39 3.9 18 -7.8 43 43 N 15 24 30.56 1035 10 16.0934 0 0
4:53 am 04:53 Clear 38 3.3 18 -7.8 44 44 NNW 16 26 30.58 1036 10 16.0934 0 0
5:53 am 05:53 Clear 37 2.8 18 -7.8 46 46 NNW 15 24 30.6 1036 10 16.0934 0 0
6:53 am 06:53 Sunny 38 3.3 17 -8.3 43 43 N 18 30 30.64 1038 10 16.0934 0 0
7:53 am 07:53 Sunny 39 3.9 16 -8.9 39 39 N 21 33 30.66 1038 10 16.0934 0 0
8:53 am 08:53 Sunny 41 5 14 -10 33 33 N 20 31 30.7 1040 10 16.0934 0 0
9:53 am 09:53 Sunny 44 6.7 13 -10.6 28 28 NNW 24 39 30.71 1040 10 16.0934 0 0
10:53 am 10:53 Sunny 45 7.2 13 -10.6 27 27 N 21 33 30.71 1040 10 16.0934 0 0
11:53 am 11:53 Sunny 47 8.3 13 -10.6 25 25 NNW 18 30 30.68 1039 10 16.0934 0 0
12:53 pm 12:53 Sunny 49 9.4 14 -10 25 25 N 16 26 30.64 1038 10 16.0934 0 0
1:53 pm 13:53 Sunny 51 10.6 13 -10.6 22 22 N 10 17 30.62 1037 10 16.0934 0 0
2:53 pm 14:53 Sunny 51 10.6 12 -11.1 21 21 N 17 28 30.61 1037 10 16.0934 0 0
3:53 pm 15:53 Sunny 51 10.6 13 -10.6 22 22 N 15 24 30.62 1037 10 16.0934 0 0
4:53 pm 16:53 Sunny 49 9.4 13 -10.6 23 23 N 5 7 30.63 1037 10 16.0934 0 0
5:53 pm 17:53 Clear 47 8.3 15 -9.4 28 28 NE 6 9 30.66 1038 10 16.0934 0 0
6:53 pm 18:53 Clear 45 7.2 16 -8.9 31 31 NNE 9 15 30.67 1039 10 16.0934 0 0
7:53 pm 19:53 Clear 45 7.2 16 -8.9 31 31 NNE 6 9 30.68 1039 10 16.0934 0 0
8:53 pm 20:53 Clear 43 6.1 18 -7.8 37 37 N 13 20 30.67 1039 10 16.0934 0 0
9:53 pm 21:53 Clear 43 6.1 17 -8.3 35 35 N 13 20 30.68 1039 10 16.0934 0 0
10:53 pm 22:53 Clear 43 6.1 17 -8.3 35 35 NNE 9 15 30.7 1040 10 16.0934 0 0
11:53 pm 23:53 Clear 39 3.9 19 -7.2 45 45 NE 5 7 30.72 1040 10 16.0934 0 0

Powered by AerisWeather